Meteo orario Godzimierz

Oggi, 12 Aprile, Lunedi

Tempo Temperatura Precipitazioni Vento Pressione Umidità
00:00 +8°C° 0 mm 3 m/s 745 mm Hg 86%
01:00 +8°C° 0 mm 3 m/s 745 mm Hg 88%
02:00 +7°C° 0 mm 3 m/s 745 mm Hg 90%
03:00 +5°C° 0 mm 3 m/s 746 mm Hg 91%
04:00 +4°C° 0 mm 3 m/s 746 mm Hg 93%
05:00 +4°C° 0 mm 3 m/s 747 mm Hg 92%
06:00 +3°C° 0 mm 4 m/s 747 mm Hg 90%
07:00 +3°C° 0 mm 4 m/s 748 mm Hg 89%
08:00 +3°C° 0.4 mm 4 m/s 749 mm Hg 89%
09:00 +1°C° 0.4 mm 4 m/s 749 mm Hg 89%
10:00 +1°C° 0.4 mm 4 m/s 750 mm Hg 90%
11:00 +1°C° 0.5 mm 4 m/s 750 mm Hg 90%
12:00 +1°C° 0.5 mm 4 m/s 751 mm Hg 90%
13:00 0°C° 0.5 mm 4 m/s 751 mm Hg 89%
14:00 +1°C° 0.6 mm 4 m/s 751 mm Hg 86%
15:00 +1°C° 0.6 mm 4 m/s 752 mm Hg 82%
16:00 +3°C° 0.6 mm 4 m/s 752 mm Hg 78%
17:00 +3°C° 0 mm 4 m/s 752 mm Hg 78%
18:00 +2°C° 0 mm 3 m/s 753 mm Hg 78%
19:00 +3°C° 0 mm 2 m/s 753 mm Hg 78%
20:00 +2°C° 0 mm 2 m/s 753 mm Hg 79%
21:00 +2°C° 0 mm 2 m/s 754 mm Hg 80%
22:00 +2°C° 0 mm 2 m/s 754 mm Hg 82%
23:00 +2°C° 0 mm 2 m/s 754 mm Hg 81%

Domani, 13 Aprile, Martedi

Tempo Temperatura Precipitazioni Vento Pressione Umidità
00:00 +2°C° 0 mm 2 m/s 754 mm Hg 80%
01:00 +2°C° 0 mm 2 m/s 754 mm Hg 79%
02:00 +1°C° 0 mm 2 m/s 754 mm Hg 81%
03:00 +1°C° 0 mm 2 m/s 754 mm Hg 83%
04:00 +1°C° 0 mm 2 m/s 754 mm Hg 85%
05:00 +1°C° 0 mm 2 m/s 755 mm Hg 82%
06:00 0°C° 0 mm 3 m/s 755 mm Hg 80%
07:00 +1°C° 0 mm 3 m/s 755 mm Hg 77%
08:00 +2°C° 0 mm 3 m/s 755 mm Hg 68%
09:00 +4°C° 0 mm 4 m/s 755 mm Hg 58%
10:00 +5°C° 0 mm 4 m/s 755 mm Hg 49%
11:00 +6°C° 0 mm 4 m/s 755 mm Hg 46%
12:00 +7°C° 0 mm 4 m/s 755 mm Hg 43%
13:00 +8°C° 0 mm 4 m/s 755 mm Hg 40%
14:00 +7°C° 0 mm 5 m/s 755 mm Hg 42%
15:00 +7°C° 0 mm 5 m/s 754 mm Hg 44%
16:00 +7°C° 0 mm 5 m/s 754 mm Hg 46%
17:00 +6°C° 0 mm 4 m/s 754 mm Hg 53%
18:00 +4°C° 0 mm 3 m/s 755 mm Hg 59%
19:00 +4°C° 0 mm 2 m/s 755 mm Hg 65%
20:00 +4°C° 0 mm 2 m/s 755 mm Hg 67%
21:00 +3°C° 0 mm 2 m/s 755 mm Hg 69%
22:00 +2°C° 0 mm 2 m/s 755 mm Hg 71%
23:00 +1°C° 0 mm 3 m/s 754 mm Hg 74%

Dopodomani, 14 Aprile, Mercoledi

Tempo Temperatura Precipitazioni Vento Pressione Umidità
00:00 +1°C° 0 mm 3 m/s 754 mm Hg 76%
01:00 0°C° 0 mm 3 m/s 754 mm Hg 79%
02:00 0°C° 0 mm 3 m/s 754 mm Hg 83%
03:00 0°C° 0 mm 3 m/s 754 mm Hg 87%
04:00 -1°C° 0 mm 3 m/s 754 mm Hg 91%
05:00 -1°C° 0 mm 4 m/s 754 mm Hg 88%
06:00 0°C° 0 mm 4 m/s 754 mm Hg 86%
07:00 0°C° 0 mm 5 m/s 754 mm Hg 83%
08:00 +1°C° 0 mm 5 m/s 754 mm Hg 75%
09:00 +4°C° 0 mm 4 m/s 754 mm Hg 68%
10:00 +5°C° 0 mm 4 m/s 754 mm Hg 60%
11:00 +5°C° 0 mm 4 m/s 754 mm Hg 58%
12:00 +5°C° 0 mm 4 m/s 754 mm Hg 56%
13:00 +6°C° 0 mm 4 m/s 754 mm Hg 54%
14:00 +6°C° 0.1 mm 4 m/s 754 mm Hg 54%
15:00 +6°C° 0.1 mm 4 m/s 754 mm Hg 55%
16:00 +5°C° 0.1 mm 4 m/s 754 mm Hg 55%
17:00 +5°C° 0 mm 4 m/s 754 mm Hg 61%
18:00 +4°C° 0 mm 4 m/s 754 mm Hg 66%
19:00 +3°C° 0 mm 3 m/s 754 mm Hg 71%
20:00 +2°C° 0 mm 3 m/s 755 mm Hg 74%
21:00 +1°C° 0 mm 3 m/s 755 mm Hg 77%
22:00 0°C° 0 mm 3 m/s 755 mm Hg 81%
23:00 0°C° 0 mm 3 m/s 755 mm Hg 80%

15 Aprile, Giovedi

Tempo Temperatura Precipitazioni Vento Pressione Umidità
00:00 0°C° 0 mm 3 m/s 755 mm Hg 80%
01:00 0°C° 0 mm 3 m/s 755 mm Hg 80%
02:00 0°C° 0 mm 3 m/s 755 mm Hg 80%
03:00 0°C° 0 mm 3 m/s 755 mm Hg 81%
04:00 0°C° 0 mm 3 m/s 755 mm Hg 81%
05:00 0°C° 0 mm 3 m/s 755 mm Hg 80%
06:00 0°C° 0 mm 4 m/s 755 mm Hg 78%
07:00 0°C° 0 mm 4 m/s 755 mm Hg 76%
08:00 +1°C° 0 mm 4 m/s 755 mm Hg 68%
09:00 +2°C° 0 mm 5 m/s 755 mm Hg 61%
10:00 +3°C° 0 mm 5 m/s 755 mm Hg 53%
11:00 +5°C° 0 mm 5 m/s 755 mm Hg 52%
12:00 +5°C° 0 mm 5 m/s 755 mm Hg 50%
13:00 +5°C° 0 mm 5 m/s 755 mm Hg 48%
14:00 +5°C° 0 mm 5 m/s 755 mm Hg 52%
15:00 +3°C° 0 mm 5 m/s 755 mm Hg 56%
16:00 +2°C° 0 mm 5 m/s 754 mm Hg 60%
17:00 +2°C° 0 mm 5 m/s 754 mm Hg 65%
18:00 +1°C° 0 mm 5 m/s 754 mm Hg 70%
19:00 +1°C° 0 mm 5 m/s 754 mm Hg 75%
20:00 +1°C° 0.1 mm 5 m/s 754 mm Hg 78%
21:00 +1°C° 0.1 mm 5 m/s 754 mm Hg 81%
22:00 +1°C° 0.1 mm 5 m/s 753 mm Hg 84%
23:00 +1°C° 0 mm 5 m/s 753 mm Hg 84%

16 Aprile, Venerdi

Tempo Temperatura Precipitazioni Vento Pressione Umidità
00:00 0°C° 0 mm 5 m/s 753 mm Hg 83%
01:00 0°C° 0 mm 5 m/s 753 mm Hg 83%
02:00 0°C° 0.1 mm 4 m/s 753 mm Hg 86%
03:00 0°C° 0.1 mm 4 m/s 753 mm Hg 89%
04:00 0°C° 0.1 mm 4 m/s 753 mm Hg 92%
05:00 +1°C° 0 mm 4 m/s 753 mm Hg 88%
06:00 +1°C° 0 mm 4 m/s 753 mm Hg 85%
07:00 +3°C° 0 mm 4 m/s 753 mm Hg 82%
08:00 +3°C° 0 mm 4 m/s 753 mm Hg 81%
09:00 +3°C° 0 mm 4 m/s 753 mm Hg 81%
10:00 +3°C° 0 mm 4 m/s 753 mm Hg 80%
11:00 +4°C° 0 mm 4 m/s 753 mm Hg 79%
12:00 +4°C° 0 mm 4 m/s 753 mm Hg 79%
13:00 +4°C° 0 mm 4 m/s 753 mm Hg 78%
14:00 +4°C° 0 mm 3 m/s 753 mm Hg 80%
15:00 +4°C° 0 mm 3 m/s 753 mm Hg 81%
16:00 +4°C° 0 mm 3 m/s 753 mm Hg 82%
17:00 +4°C° 0.1 mm 3 m/s 753 mm Hg 85%
18:00 +3°C° 0.1 mm 3 m/s 753 mm Hg 87%
19:00 +3°C° 0.1 mm 3 m/s 753 mm Hg 90%
20:00 +3°C° 0.1 mm 3 m/s 753 mm Hg 91%
21:00 +3°C° 0.1 mm 3 m/s 753 mm Hg 92%
22:00 +3°C° 0.1 mm 3 m/s 753 mm Hg 93%
23:00 +3°C° 0.1 mm 3 m/s 753 mm Hg 94%

17 Aprile, Sabato

Tempo Temperatura Precipitazioni Vento Pressione Umidità
00:00 +3°C° 0.1 mm 3 m/s 753 mm Hg 95%
01:00 +3°C° 0.1 mm 3 m/s 753 mm Hg 96%
02:00 +4°C° 0 mm 3 m/s 753 mm Hg 95%
03:00 +4°C° 0 mm 3 m/s 753 mm Hg 95%
04:00 +4°C° 0 mm 3 m/s 753 mm Hg 95%
05:00 +4°C° 0.1 mm 3 m/s 753 mm Hg 95%
06:00 +4°C° 0.1 mm 3 m/s 753 mm Hg 95%
07:00 +5°C° 0.1 mm 3 m/s 753 mm Hg 95%
08:00 +5°C° 0 mm 3 m/s 753 mm Hg 92%
09:00 +7°C° 0 mm 3 m/s 753 mm Hg 89%
10:00 +8°C° 0 mm 3 m/s 753 mm Hg 86%
11:00 +8°C° 0 mm 3 m/s 753 mm Hg 86%
12:00 +8°C° 0 mm 3 m/s 753 mm Hg 86%
13:00 +8°C° 0 mm 3 m/s 753 mm Hg 87%
14:00 +9°C° 0 mm 3 m/s 753 mm Hg 84%
15:00 +10°C° 0 mm 3 m/s 753 mm Hg 82%
16:00 +10°C° 0 mm 3 m/s 753 mm Hg 79%
17:00 +10°C° 0 mm 3 m/s 753 mm Hg 83%
18:00 +9°C° 0 mm 3 m/s 753 mm Hg 86%
19:00 +9°C° 0 mm 3 m/s 754 mm Hg 90%
20:00 +8°C° 0 mm 3 m/s 754 mm Hg 92%
21:00 +8°C° 0 mm 3 m/s 754 mm Hg 93%
22:00 +7°C° 0 mm 3 m/s 754 mm Hg 95%
23:00 +7°C° 0 mm 3 m/s 754 mm Hg 95%
Mostrare altro

Abbiamo bisogno del tuo consenso

Meteoprog e i nostri fornitori di servizi possono memorizzare e accedere a dati personali come cookie, identificatori di dispositivi o altre tecnologie simili sul tuo dispositivo e possono elaborare tali dati per personalizzare i contenuti e gli annunci, nonché fornire funzionalità dei social media e analizzarne il traffico.

  • Archiviare e/o accedere alle informazioni sul tuo dispositivo

    Cookie, identificatori di dispositivi o altre informazioni possono essere memorizzati o resi accessibili sul tuo dispositivo per le finalità sopra indicate.

  • Annunci e contenuti personalizzati, misurazione di annunci e contenuti, approfondimenti sul pubblico e sviluppo di prodotti

    Gli annunci e i contenuti possono essere personalizzati in base a un profilo. È possibile aggiungere più dati per personalizzare meglio annunci e contenuti. È possibile misurare il rendimento degli annunci e dei contenuti. È possibile ricavare informazioni sul pubblico che ha visto gli annunci e i contenuti. Tali dati possono essere utilizzati per sviluppare o migliorare l'esperienza, i sistemi e il software dell'utente.

Cliccando su “Accetto”, acconsenti all'uso di cookie, identificatori di dispositivo, web beacon o altre tecnologie simili. Puoi modificare le impostazioni nel browser del tuo dispositivo.

Per determinati scopi, è possibile fare affidamento su interessi legali, piuttosto che sul consenso. Puoi approfondire questo argomento consultando la nostra Informativa sulla privacy e sui cookie.